Change the Weather History Date:

Sunday, January 18, 1998

  Actual Average Record
Temperature  
Mean Temperature 37 °F 35 °F  
Max Temperature 44 °F 45 °F 71 °F (1949)
Min Temperature 30 °F 25 °F -3 °F (1994)
Degree Days  
Heating Degree Days 28 30  
Month to date heating degree days 540  
Since 1 July heating degree days 2269  
Cooling Degree Days 0 0  
Month to date cooling degree days 0  
Year to date cooling degree days 0  
Moisture  
Dew Point 31 °F    
Average Humidity 77    
Maximum Humidity 96    
Minimum Humidity 53    
Precipitation  
Precipitation 0.11 in 0.10 in 0.68 in (1987)
Month to date precipitation 1.92  
Year to date precipitation 1.92  
Snow  
Snow 0.00 in 0.20 in - ()
Month to date snowfall 2.7  
Since 1 July snowfall 5.4  
Snow Depth -    
Sea Level Pressure  
Sea Level Pressure 30.05 in    
Wind  
Wind Speed 6 mph (SW)    
Max Wind Speed 13 mph    
Max Gust Speed -    
Visibility 10 miles    
Events Rain    
T = Trace of Precipitation, MM = Missing Value Source: NWS Daily Summary

Daily Weather History Graph

Daily Weather History Graph

Search for Another Location

Airport or City:

Trip Planner

Search our weather history database for the weather conditions in past years. The results will help you decide how hot, cold, wet, or windy it might be!

Date:

Astronomy

Jan. 18, 1998 Rise Set
Actual Time 7:39 AM EST 5:40 PM EST
Civil Twilight 7:11 AM EST 6:08 PM EST
Nautical Twilight 6:40 AM EST 6:40 PM EST
Astronomical Twilight 6:09 AM EST 7:11 PM EST
Moon 11:27 PM EST (1/18) 10:58 AM EST (1/18)
Length of Visible Light 10h 57m
Length of Day
10h 01m
Waning Gibbous, 69% of the Moon is Illuminated
Jan 18
Waning Gibbous
Jan 20
Last Quarter
Jan 28
New
Feb 3
First Quarter
Feb 11
Full

Hourly Weather History & Observations

Time (EST) Temp. Windchill Dew Point Humidity Pressure Visibility Wind Dir Wind Speed Gust Speed Precip Events Conditions
12:03 AM 35.6 °F 28.6 °F 30.2 °F 81% 30.03 in 10.0 mi West 9.2 mph - N/A   Overcast
12:13 AM 35.6 °F 27.1 °F 28.4 °F 75% 30.02 in 10.0 mi West 12.7 mph - N/A   Overcast
12:53 AM 35.1 °F 27.9 °F 30.0 °F 82% 30.05 in 10.0 mi West 9.2 mph - N/A   Overcast
1:53 AM 35.1 °F 26.4 °F 28.9 °F 78% 30.06 in 10.0 mi West 12.7 mph - N/A   Overcast
2:53 AM 35.1 °F 28.6 °F 28.9 °F 78% 30.07 in 10.0 mi WSW 8.1 mph - N/A   Overcast
3:41 AM 32.0 °F 27.5 °F 28.4 °F 87% 30.04 in 10.0 mi West 4.6 mph - N/A   Scattered Clouds
3:53 AM 32.0 °F 26.4 °F 28.0 °F 85% 30.07 in 10.0 mi West 5.8 mph - N/A   Clear
4:53 AM 30.0 °F - 28.0 °F 92% 30.04 in 10.0 mi Calm Calm - N/A   Clear
5:53 AM 30.0 °F 22.4 °F 27.0 °F 88% 30.09 in 10.0 mi West 8.1 mph - N/A   Partly Cloudy
6:08 AM 30.2 °F 23.4 °F 28.4 °F 93% 30.06 in 10.0 mi West 6.9 mph - N/A   Mostly Cloudy
6:53 AM 32.0 °F 26.4 °F 28.0 °F 85% 30.12 in 10.0 mi West 5.8 mph - N/A   Overcast
7:53 AM 32.0 °F 28.7 °F 28.0 °F 85% 30.13 in 10.0 mi SW 3.5 mph - N/A   Overcast
8:53 AM 33.1 °F - 27.0 °F 78% 30.13 in 10.0 mi Calm Calm - N/A   Overcast
9:53 AM 36.0 °F - 28.0 °F 73% 30.13 in 10.0 mi Calm Calm - N/A   Partly Cloudy
10:53 AM 36.0 °F 32.1 °F 28.9 °F 76% 30.14 in 10.0 mi SW 4.6 mph - N/A   Mostly Cloudy
11:08 AM 37.4 °F 32.8 °F 30.2 °F 75% 30.12 in 10.0 mi SW 5.8 mph - N/A   Scattered Clouds
11:53 AM 39.0 °F 34.8 °F 30.9 °F 73% 30.12 in 10.0 mi SSW 5.8 mph - N/A   Clear
12:53 PM 42.1 °F - 30.0 °F 62% 30.08 in 10.0 mi Calm Calm - N/A   Partly Cloudy
1:53 PM 43.0 °F - 30.0 °F 60% 30.06 in 10.0 mi Calm Calm - N/A   Scattered Clouds
2:53 PM 44.1 °F 42.5 °F 30.0 °F 58% 30.04 in 10.0 mi WSW 3.5 mph - N/A   Partly Cloudy
3:53 PM 44.1 °F - 28.0 °F 53% 30.03 in 10.0 mi Calm Calm - N/A   Clear
4:53 PM 43.0 °F - 30.9 °F 62% 30.04 in 10.0 mi Calm Calm - N/A   Scattered Clouds
5:53 PM 43.0 °F 41.3 °F 30.0 °F 60% 30.01 in 10.0 mi SSE 3.5 mph - N/A   Overcast
6:53 PM 42.1 °F 37.7 °F 32.0 °F 67% 30.01 in 10.0 mi WSW 6.9 mph - N/A   Overcast
7:53 PM 42.1 °F 40.2 °F 34.0 °F 73% 29.99 in 10.0 mi South 3.5 mph - 0.00 in Rain Light Rain
8:53 PM 42.1 °F - 36.0 °F 79% 29.99 in 10.0 mi Calm Calm - 0.00 in Rain Light Rain
9:33 PM 41.0 °F 39.0 °F 37.4 °F 87% 29.97 in 9.0 mi SSW 3.5 mph - 0.01 in Rain Light Rain
9:53 PM 41.0 °F 38.0 °F 37.9 °F 89% 29.98 in 10.0 mi South 4.6 mph - 0.02 in Rain Light Rain
10:53 PM 39.9 °F 37.8 °F 37.9 °F 93% 29.99 in 9.0 mi SW 3.5 mph - 0.03 in Rain Light Rain
11:53 PM 39.0 °F 35.7 °F 37.9 °F 96% 29.98 in 9.0 mi SW 4.6 mph - 0.06 in Rain Light Rain